sat.trackr.live / text

‹ back to catalog

ZHONGXING-12

NORAD 39017 · 2012-067A

PAYLOAD ACTIVE UNKNOWN

§ Identity

Operator
Country
PRC
Launch date
2012-11-27
Launch site
XICLF
Launch vehicle
Mass (kg)
RCS (m²)
63.10

Purposes: comms

External: N2YO · Heavens-Above · Gunter

§ Orbital elements

Epoch: 2026-09-20T01:56:29.709888Z

Period
1,436.07 min
Inclination
0.0100°
Eccentricity
0.0002770
Mean motion
1.00273807 rev/d
Perigee alt
35,774.3 km
Apogee alt
35,797.7 km
Semi-major
42,164.2 km
B*
0.0000e+0
RAAN
153.5559°
Arg perigee
13.2611°
Mean anomaly
308.7954°
Rev number
5,046

§ Raw data

ZHONGXING-121 39017U 12067A   26263.08089942 -.00000211  00000+0  00000+0 0  99982 39017   0.0100 153.5559 0002770  13.2611 308.7954  1.00273807 50465

JSON: /api/v1/satellites/39017 · /tle

For live sub-satellite position, see the globe view (requires WebGL).

§ Visibility from observer

Set your observer location to see the next 7 days of passes ≥ 10°. The values pass through the URL so the page stays shareable.

No JS? Fill the form by hand. The geolocation button needs JavaScript.